Tracking 17141 objects as of 7-July-2015
HD Live streaming from Space Station

IRIDIUM 76

Track IRIDIUM 76 now!
10-day predictions
IRIDIUM 76 is classified as:


NORAD ID: 25432
Int'l Code: 1998-048B
Perigee: 783.3 km
Apogee: 786.4 km
Inclination: 86.4 °
Period: 100.4 minutes
Semi major axis: 7155 km
RCS: 4.1166 m2 (large)
Launch date: August 19, 1998
Source: United States (US)

Spare; stored in 667 km storage orbit, not raised to 780 km operational orbit until needed
Your satellite tracking list
Your tracking list is empty





NASA's NSSDC Master Catalog

Two Line Element Set (TLE):
1 25432U 98048B   15187.51708411  .00000033  00000-0  47517-5 0  9999
2 25432 086.3966 192.9406 0002168 091.0982 019.0114 14.34219059883590

Source of the keplerian elements: AFSPC

N2YO: 317